CW1735 Weather Reports


time (UTC)temp
C
wind
direction
speed
KPH
gust
KPH
rain 1hr
cm
rain 24hr
cm
rain mn
cm
humidity
%
barometer
mb
20260510175607 20 246 0.0 0.0 0.00 0.84 0.00 64 1009.7
20260510174608 20 265 0.0 0.0 0.00 0.89 0.00 62 1009.7
20260510174108 20 232 0.0 0.0 0.00 0.89 0.00 61 1009.3
20260510173608 20 188 0.0 0.0 0.00 0.91 0.00 63 1009.4
20260510173109 20 239 0.0 0.0 0.00 0.91 0.00 62 1009.3
20260510172609 20 232 0.0 0.0 0.00 0.91 0.00 62 1009.3
20260510172110 20 240 0.0 0.0 0.00 0.91 0.00 61 1009.3
20260510171110 20 268 0.0 0.0 0.00 0.91 0.00 63 1009.3
20260510170612 20 237 0.0 0.0 0.00 0.91 0.00 63 1009.3
20260510165612 20 205 0.0 0.0 0.00 0.91 0.00 65 1009.4
20260510165112 20 274 0.0 0.0 0.00 0.91 0.00 64 1009.4
20260510164113 20 195 0.0 0.0 0.00 0.91 0.00 65 1009.5
20260510163613 19 185 0.0 0.0 0.00 0.91 0.00 66 1009.4
20260510162614 20 233 0.0 0.0 0.00 0.91 0.00 66 1009.5
20260510162114 20 220 0.0 0.0 0.00 0.91 0.00 66 1009.5
20260510161614 19 215 0.0 0.0 0.00 0.91 0.00 67 1009.4
20260510161115 19 257 0.0 0.0 0.00 0.91 0.00 68 1009.4
20260510160616 19 181 0.0 0.0 0.00 0.91 0.00 68 1009.4
20260510155616 18 270 0.0 0.0 0.00 0.91 0.00 70 1009.5
20260510154617 18 271 0.0 0.0 0.00 0.91 0.00 70 1009.5
20260510154130 18 208 0.0 0.0 0.00 0.91 0.00 71 1009.3
20260510153118 18 217 0.0 0.0 0.00 0.91 0.00 72 1009.3
20260510152121 18 184 0.0 0.0 0.00 0.91 0.00 73 1009.4
20260510151620 18 234 0.0 0.0 0.00 0.91 0.00 74 1009.4
20260510150620 17 287 0.0 0.0 0.00 0.91 0.00 76 1009.3
20260510145551 17 164 0.0 0.0 0.00 0.91 0.00 84 1009.3
20260510145121 17 162 0.0 0.0 0.00 0.91 0.00 86 1009.3
20260510144622 16 193 0.0 0.0 0.00 0.91 0.00 88 1009.2
20260510143623 16 150 0.0 0.0 0.00 0.91 0.00 92 1009.3
20260510142554 15 178 0.0 0.0 0.00 0.91 0.00 96 1009.2
20260510142055 15 198 0.0 0.0 0.00 0.91 0.00 97 1009.2
20260510141055 15 226 0.0 0.0 0.00 0.91 0.00 97 1009.2
20260510140557 15 165 0.0 0.0 0.00 0.91 0.00 100 1009.2
20260510135556 13 198 0.0 0.0 0.00 0.91 0.00 100 1008.9
20260510135057 13 210 0.0 0.0 0.00 0.91 0.00 100 1008.9
20260510134558 13 210 0.0 0.0 0.00 0.91 0.00 100 1008.9
20260510134058 13 165 0.0 0.0 0.00 0.91 0.00 100 1009.0
20260510133559 13 182 0.0 0.0 0.00 0.91 0.00 100 1009.0
20260510132600 12 247 0.0 0.0 0.00 0.91 0.00 100 1009.0
20260510132100 12 216 0.0 0.0 0.00 0.91 0.00 100 1009.0
20260510131601 12 232 0.0 0.0 0.00 0.91 0.00 100 1009.0
20260510131100 12 164 0.0 0.0 0.00 0.91 0.00 100 1009.1
20260510130601 12 168 0.0 0.0 0.00 0.91 0.00 100 1009.1
20260510125602 11 234 0.0 0.0 0.00 0.91 0.00 100 1008.9
20260510125102 11 216 0.0 0.0 0.00 0.91 0.00 100 1008.9
20260510124603 11 206 0.0 0.0 0.00 0.91 0.00 100 1008.9
20260510123106 10 336 0.0 0.0 0.00 0.91 0.00 100 1008.4
20260510122604 10 336 0.0 0.0 0.00 0.91 0.00 100 1008.4
20260510122105 10 336 0.0 0.0 0.00 0.91 0.00 100 1008.4
20260510121605 10 336 0.0 0.0 0.00 0.91 0.00 100 1008.4
20260510121105 10 336 0.0 0.0 0.00 0.91 0.00 100 1008.4
20260510120606 10 336 0.0 0.0 0.00 0.91 0.00 100 1008.4
20260510115107 9 336 0.0 0.0 0.00 0.91 0.00 100 1008.1
20260510114108 9 346 0.0 0.0 0.00 0.91 0.00 100 1007.9
20260510113609 9 346 0.0 0.0 0.00 0.91 0.00 100 1007.9
20260510112610 9 346 0.0 0.0 0.00 0.91 0.00 100 1008.0
20260510112110 9 346 0.0 0.0 0.00 0.91 0.00 100 1008.0
20260510111610 9 346 0.0 0.0 0.00 0.91 0.00 100 1008.0
20260510111111 9 346 0.0 0.0 0.00 0.91 0.00 100 1008.0
20260510110611 9 346 0.0 0.0 0.00 0.91 0.00 100 1008.0
20260510105612 9 346 0.0 0.0 0.00 0.91 0.00 100 1007.9
20260510104613 9 346 0.0 0.0 0.00 0.91 0.00 100 1007.9
20260510104113 9 346 0.0 0.0 0.00 0.91 0.00 100 1007.6
20260510103613 9 346 0.0 0.0 0.00 0.91 0.00 100 1007.6
20260510102614 8 346 0.0 0.0 0.00 0.91 0.00 100 1007.4
20260510102115 8 346 0.0 0.0 0.00 0.91 0.00 100 1007.4
20260510101615 8 346 0.0 0.0 0.00 0.91 0.00 100 1007.4
20260510100616 9 346 0.0 0.0 0.00 0.91 0.00 100 1007.5
20260510095617 9 346 0.0 0.0 0.00 0.91 0.00 100 1007.5
20260510095117 9 344 0.0 0.0 0.00 0.91 0.00 100 1007.5
20260510094617 9 344 0.0 0.0 0.00 0.91 0.00 100 1007.5
20260510093619 9 344 0.0 0.0 0.00 0.91 0.00 100 1007.6
20260510093119 9 344 0.0 0.0 0.00 0.91 0.00 100 1007.6
20260510092620 9 344 0.0 0.0 0.00 0.91 0.00 100 1007.5
20260510091620 9 344 0.0 0.0 0.00 0.91 0.00 100 1007.5
20260510091122 9 344 0.0 0.0 0.00 0.91 0.00 100 1007.5
20260510090551 9 344 0.0 0.0 0.00 0.91 0.00 100 1007.5
20260510085623 9 344 0.0 0.0 0.00 0.91 0.00 100 1007.8
20260510085053 9 344 0.0 0.0 0.00 0.91 0.00 100 1007.8
20260510084554 9 344 0.0 0.0 0.00 0.91 0.00 100 1007.8
20260510084053 9 344 0.0 0.0 0.00 0.91 0.00 100 1007.9
20260510083554 9 344 0.0 0.0 0.00 0.91 0.00 100 1007.9
20260510083055 9 344 0.0 0.0 0.00 0.91 0.00 100 1007.9
20260510082055 9 344 0.0 0.0 0.00 0.91 0.00 100 1008.0
20260510081056 8 344 0.0 0.0 0.00 0.91 0.00 100 1007.9
20260510075557 8 322 0.0 0.0 0.00 0.91 0.00 100 1007.5
20260510075058 8 352 0.0 0.0 0.00 0.91 0.00 100 1007.5
20260510073559 8 155 0.0 0.0 0.00 0.91 0.00 100 1007.0
20260510073059 8 154 0.0 0.0 0.00 0.91 0.00 100 1007.0
20260510072559 8 155 0.0 0.0 0.00 0.91 0.00 100 1007.0
20260510072059 8 155 0.0 0.0 0.00 0.91 0.00 100 1007.0
20260510071600 8 155 0.0 0.0 0.00 0.91 0.00 100 1007.0
20260510071529 8 0 0.0 0.0 0.00 0.91 0.00 100 1007.0
20260510071507 8 0 0.0 0.0 0.00 0.91 0.00 100 1006.9
20260510065102 9 155 0.0 0.0 0.00 0.91 0.00 100 1007.3
20260510064603 9 155 0.0 0.0 0.00 0.91 0.00 100 1007.3
20260510064103 8 155 0.0 0.0 0.00 0.91 0.00 100 1007.4
20260510063603 8 155 0.0 0.0 0.00 0.91 0.00 100 1007.4
20260510063104 9 155 0.0 0.0 0.00 0.91 0.00 100 1007.5
20260510062604 9 155 0.0 0.0 0.00 0.91 0.00 100 1007.5
20260510062106 9 155 0.0 0.0 0.00 0.91 0.00 100 1007.5
20260510061605 9 155 0.0 0.0 0.00 0.91 0.00 100 1007.5
20260510061105 9 155 0.0 0.0 0.00 0.91 0.00 100 1007.2
20260510060607 9 154 0.0 0.0 0.00 0.91 0.00 100 1007.2
20260510055606 8 154 0.0 0.0 0.00 0.91 0.00 100 1007.1
20260510055107 8 154 0.0 0.0 0.00 0.91 0.00 100 1007.1
20260510054108 8 155 0.0 0.0 0.00 0.91 0.00 100 1007.1
20260510053608 8 155 0.0 0.0 0.00 0.91 0.00 100 1007.1
20260510053109 8 155 0.0 0.0 0.00 0.91 0.00 100 1007.1
20260510052110 8 154 0.0 0.0 0.00 0.91 0.00 100 1007.1
20260510051610 8 155 0.0 0.0 0.00 0.91 0.00 100 1007.1
20260510051111 8 155 0.0 0.0 0.00 0.91 0.00 100 1007.2
20260510045612 9 155 0.0 0.0 0.00 0.91 0.00 100 1007.4
20260510045113 9 155 0.0 0.0 0.00 0.91 0.00 100 1007.4
20260510044113 9 155 0.0 0.0 0.00 0.91 0.00 100 1007.5
20260510043613 9 155 0.0 0.0 0.00 0.91 0.00 100 1007.5
20260510043113 9 155 0.0 0.0 0.00 0.91 0.00 100 1007.5
20260510042614 9 155 0.0 0.0 0.00 0.91 0.00 100 1007.6
20260510042114 9 155 0.0 0.0 0.00 0.91 0.00 100 1007.6
20260510040616 9 155 0.0 0.0 0.00 0.91 0.00 100 1007.5
20260510035617 9 155 0.0 0.0 0.00 0.91 0.91 100 1007.5
20260510035117 9 155 0.0 0.0 0.00 0.91 0.91 100 1007.5
20260510034618 9 155 0.0 0.0 0.00 0.91 0.91 100 1007.5
20260510034118 9 155 0.0 0.0 0.00 0.91 0.91 100 1007.2
20260510033618 9 155 0.0 0.0 0.00 0.91 0.91 100 1007.2
20260510033119 9 155 0.0 0.0 0.00 0.91 0.91 100 1007.2
20260510032619 9 154 0.0 0.0 0.00 0.91 0.91 100 1007.2
20260510032119 9 155 0.0 0.0 0.00 0.91 0.91 100 1007.2
20260510030621 10 154 0.0 0.0 0.00 0.91 0.91 100 1007.1
20260510025621 10 155 0.0 0.0 0.00 0.91 0.91 100 1007.1
20260510025122 10 155 0.0 0.0 0.00 0.91 0.91 100 1007.1
20260510024122 10 155 0.0 0.0 0.00 0.91 0.91 100 1007.1
20260510023554 10 155 0.0 0.0 0.00 0.91 0.91 100 1007.1
20260510022553 10 155 0.0 0.0 0.00 0.91 0.91 100 1007.1
20260510022054 10 155 0.0 0.0 0.00 0.91 0.91 100 1007.1
20260510021555 10 155 0.0 0.0 0.00 0.91 0.91 100 1007.1
20260510021056 10 155 0.0 0.0 0.00 0.91 0.91 100 1007.2
20260510020555 10 154 0.0 0.0 0.00 0.91 0.91 100 1007.2
20260510020155 10 155 0.0 0.0 0.00 0.91 0.91 100 1007.2
20260510015557 10 155 0.0 0.0 0.00 0.91 0.91 100 1007.1
20260510015056 10 155 0.0 0.0 0.00 0.91 0.91 100 1007.1
20260510014057 9 155 0.0 0.0 0.00 0.91 0.91 100 1007.0
20260510013558 10 155 0.0 0.0 0.00 0.91 0.91 100 1007.0
20260510013058 10 155 0.0 0.0 0.00 0.91 0.91 100 1007.0
20260510012559 10 155 0.0 0.0 0.00 0.91 0.91 100 1007.0
20260510012100 10 155 0.0 0.0 0.00 0.91 0.91 100 1007.0
20260510011559 10 155 0.0 0.0 0.00 0.91 0.91 100 1007.0
20260510011100 10 155 0.0 0.0 0.00 0.91 0.91 100 1006.9
20260510010600 10 155 0.0 0.0 0.00 0.91 0.91 100 1006.9
20260510010131 10 155 0.0 0.0 0.00 0.91 0.91 100 1006.9
20260510005601 10 155 0.0 0.0 0.00 0.91 0.91 100 1006.5
20260510004602 10 155 0.0 0.0 0.00 0.91 0.91 100 1006.5
20260510004102 10 155 0.0 0.0 0.00 0.91 0.91 100 1006.3
20260510003103 11 155 0.0 0.0 0.00 0.91 0.91 100 1006.3
20260510002603 11 155 0.0 0.0 0.00 0.91 0.91 100 1006.3
20260510002105 11 155 0.0 0.0 0.00 0.91 0.91 100 1006.3
20260510001104 11 155 0.0 0.0 0.00 0.91 0.91 100 1006.4
20260510000606 11 155 0.0 0.0 0.00 0.91 0.91 100 1006.4
20260509235606 11 155 0.0 0.0 0.00 0.91 0.91 100 1006.4
20260509235107 11 155 0.0 0.0 0.00 0.91 0.91 100 1006.4
20260509234607 11 155 0.0 0.0 0.00 0.91 0.91 100 1006.4
20260509233608 11 154 0.0 0.0 0.00 0.91 0.91 100 1006.1
20260509233108 11 154 0.0 0.0 0.00 0.91 0.91 100 1006.1
20260509232608 11 154 0.0 0.0 0.00 0.91 0.91 100 1006.0
20260509232109 11 154 0.0 0.0 0.00 0.91 0.91 100 1006.0
20260509231610 11 154 0.0 0.0 0.00 0.91 0.91 100 1006.0
20260509231110 11 154 0.0 0.0 0.00 0.91 0.91 100 1006.0
20260509230610 11 154 0.0 0.0 0.00 0.91 0.91 100 1006.0
20260509225612 12 154 0.0 0.0 0.00 0.91 0.91 100 1006.0
20260509225111 12 154 0.0 0.0 0.00 0.91 0.91 100 1006.0
20260509224611 12 154 0.0 0.0 0.00 0.91 0.91 100 1006.0
20260509224112 12 195 0.0 0.0 0.00 0.91 0.91 100 1006.1
20260509223613 12 171 0.0 0.0 0.00 0.91 0.91 100 1006.1
20260509222614 12 182 0.0 0.0 0.00 0.91 0.91 100 1006.2
20260509222114 12 182 0.0 0.0 0.00 0.91 0.91 100 1006.2
20260509221614 12 182 0.0 0.0 0.00 0.91 0.91 100 1006.2
20260509221114 12 182 0.0 0.0 0.00 0.91 0.91 100 1006.3
20260509220615 12 182 0.0 0.0 0.03 0.91 0.91 100 1006.3
20260509215116 12 226 0.0 0.0 0.05 0.91 0.91 100 1006.4
20260509214616 12 226 0.0 0.0 0.05 0.91 0.91 100 1006.4
20260509213617 12 226 0.0 0.0 0.20 0.91 0.91 100 1006.1
20260509213118 12 224 0.0 0.0 0.20 0.91 0.91 100 1006.1
20260509212618 11 224 0.0 0.0 0.20 0.91 0.91 100 1006.3
20260509212119 11 224 0.0 0.0 0.23 0.91 0.91 100 1006.3
20260509211120 11 224 0.0 0.0 0.25 0.91 0.91 100 1006.3
20260509210620 11 226 0.0 0.0 0.23 0.89 0.89 100 1006.3
20260509205621 11 224 0.0 0.0 0.28 0.89 0.89 100 1006.3
20260509205123 11 224 0.0 0.0 0.28 0.86 0.86 100 1006.3
20260509204621 11 226 0.0 0.0 0.33 0.86 0.86 100 1006.3
20260509204121 11 224 0.0 0.0 0.25 0.76 0.76 100 1006.3
20260509203622 11 224 0.0 0.0 0.23 0.71 0.71 100 1006.3
20260509203122 11 224 0.0 0.0 0.23 0.71 0.71 100 1006.3
20260509202053 11 226 0.0 0.0 0.23 0.69 0.69 100 1006.3
20260509201554 11 224 0.0 0.0 0.25 0.69 0.69 100 1006.3
20260509201054 11 224 0.0 0.0 0.25 0.66 0.66 100 1006.6
20260509200557 11 224 0.0 0.0 0.28 0.66 0.66 100 1006.6
20260509195616 11 224 0.0 0.0 0.28 0.61 0.61 100 1007.1
20260509195056 11 226 0.0 0.0 0.28 0.58 0.58 100 1007.1
20260509194626 11 224 0.0 0.0 0.25 0.53 0.53 100 1007.1
20260509194056 11 244 0.0 0.0 0.25 0.51 0.51 100 1007.1
20260509193557 11 244 0.0 0.0 0.25 0.48 0.48 100 1007.1
20260509193058 11 244 0.0 0.0 0.25 0.48 0.48 100 1007.1
20260509192558 11 246 0.0 0.0 0.25 0.46 0.46 100 1007.2
20260509192058 11 248 0.0 0.0 0.25 0.48 0.46 100 1007.2
20260509191629 11 254 0.0 0.0 0.25 0.46 0.43 100 1007.2
20260509191059 11 239 0.0 0.0 0.25 0.43 0.41 100 1007.3
20260509190600 11 243 0.0 0.0 0.23 0.41 0.38 100 1007.3
20260509185600 11 233 0.0 0.0 0.25 0.36 0.33 100 1007.3
20260509185100 11 260 0.0 0.0 0.25 0.33 0.30 100 1007.3
20260509184601 11 251 0.0 0.0 0.25 0.30 0.28 100 1007.3
20260509184101 11 247 0.0 0.0 0.23 0.28 0.25 99 1007.0
20260509183602 12 230 0.0 0.0 0.23 0.25 0.23 98 1007.1
20260509183102 11 230 0.0 0.0 0.23 0.25 0.23 98 1007.0
20260509182602 11 230 0.0 0.0 0.20 0.23 0.20 97 1007.3
20260509182103 11 230 0.0 0.0 0.20 0.23 0.20 97 1007.3
20260509181603 12 230 0.0 0.0 0.18 0.20 0.18 96 1007.4
20260509181104 12 233 0.0 0.0 0.15 0.18 0.15 95 1007.9
20260509180605 12 251 0.0 0.0 0.15 0.18 0.15 95 1007.9